Flag for New Zealand Weather past 2 weeks in Wellington, New Zealand

Now
37 °F

Chilly.


Feels Like: 35 °F
Forecast: 43 / 55 °F
Wind: 3 mph from Northeast

Location: Wellington Airport

Current Time: Aug 28, 2014 at 5:18:29 AM

Latest Report: Aug 28, 2014 at 4:30 AM


Visibility: N/A

Pressure: 30.54 "Hg

Humidity: 93%

Dew point: 36 °F

Location of WellingtonLocation

Historic Weather in Wellington — Graph

°F

Wellington temperature yesterday

Maximum temperature yesterday: 52 °F (at 2:30 PM)
Minimum temperature yesterday: 37 °F (at 12:30 AM)
Average temperature yesterday: 47 °F

Past Weeks' High & Low Weather Summary

 TemperatureHumidityPressure
High57 °F (Aug 18, 12:30 PM)100% (Aug 20, 4:00 PM)30.57 "Hg (Aug 20, 4:00 PM)
Low37 °F (Aug 27, 12:30 AM)47% (Aug 14, 10:30 AM)29.30 "Hg (Aug 14, 2:00 PM)
Average49 °F77%30.15 "Hg
* Reported Aug 13 3:00 AM — Aug 28 3:00 AM, Wellington, Weather by CustomWeather, © 2014

Note: Actual official high and low records may vary slightly from our data, if they occured in-between our weather recording intervals... More about our weather records

Advertising

Wellington weather history for previous 24 hours

 ConditionsComfort  
Time TempWeatherWind HumidityBarometerVisibility
3:00 AM
Aug 28
37 °FChilly.3 mph93%30.54 "HgN/A
2:30 AM39 °FChilly.3 mph87%30.54 "HgN/A
2:00 AM39 °FChilly.3 mph87%30.54 "HgN/A
1:30 AM39 °FChilly.3 mph87%30.54 "HgN/A
1:00 AM39 °FChilly.2 mph87%30.54 "HgN/A
12:30 AM41 °FQuite cool.2 mph87%30.54 "HgN/A
12:00 AM41 °FQuite cool.2 mph87%30.57 "HgN/A
11:30 PM
Aug 27
43 °FQuite cool.1 mph81%30.57 "HgN/A
11:00 PM45 °FQuite cool.1 mph76%30.57 "HgN/A
10:30 PM46 °FCool.1 mph82%30.57 "HgN/A
10:00 PM46 °FOvercast.2 mph82%30.57 "HgN/A
9:30 PM46 °FPassing clouds.3 mph82%30.57 "HgN/A
9:00 PM48 °FOvercast.3 mph76%30.57 "HgN/A
8:30 PM50 °FOvercast.3 mph71%30.54 "HgN/A
8:00 PM50 °FPassing clouds.9 mph76%30.54 "HgN/A
7:30 PM48 °FPassing clouds.9 mph76%30.54 "HgN/A
7:00 PM48 °FPassing clouds.12 mph82%30.54 "HgN/A
6:30 PM48 °FOvercast.12 mph76%30.54 "HgN/A
6:00 PM50 °FPassing clouds.12 mph71%30.54 "HgN/A
5:30 PM50 °FOvercast.10 mph71%30.54 "HgN/A
5:00 PM50 °FOvercast.12 mph71%30.51 "HgN/A
4:30 PM50 °FOvercast.12 mph71%30.51 "HgN/A
4:00 PM50 °FOvercast.12 mph67%30.51 "HgN/A
3:30 PM50 °FOvercast.13 mph71%30.54 "HgN/A
3:00 PM50 °FPartly sunny.14 mph67%30.54 "HgN/A
2:30 PM52 °FPartly sunny.14 mph67%30.54 "HgN/A
2:00 PM50 °FOvercast.14 mph71%30.54 "HgN/A
1:30 PM50 °FOvercast.14 mph67%30.54 "HgN/A
1:00 PM50 °FOvercast.13 mph67%30.54 "HgN/A
12:30 PM50 °FOvercast.5 mph67%30.54 "HgN/A
12:00 PM50 °FPartly sunny.5 mph62%30.57 "HgN/A
11:30 AM50 °FOvercast.12 mph62%30.57 "HgN/A
11:00 AM48 °FOvercast.12 mph66%30.57 "HgN/A
10:30 AM48 °FOvercast.13 mph66%30.57 "HgN/A
10:00 AM48 °FOvercast.12 mph66%30.57 "HgN/A
9:30 AM48 °FOvercast.12 mph66%30.57 "HgN/A
9:00 AM48 °FOvercast.13 mph66%30.54 "HgN/A
8:30 AM48 °FOvercast.15 mph66%30.54 "HgN/A
8:00 AM48 °FOvercast.12 mph66%30.54 "HgN/A
7:30 AM48 °FOvercast.10 mph62%30.54 "HgN/A
7:00 AM48 °FOvercast.7 mph66%30.51 "HgN/A
6:30 AM48 °FOvercast.5 mph62%30.51 "HgN/A
6:00 AM48 °FOvercast.7 mph62%30.51 "HgN/A
5:30 AM46 °FOvercast.6 mph66%30.51 "HgN/A
5:00 AM46 °FOvercast.8 mph71%30.51 "HgN/A
Weather by CustomWeather, © 2014

See weather overviewHow to use our weather pages